This demonstration page uses our WeatherBlox Daily Observations layout. Learn more.

Left ArrowRight Arrow

34.74481, -87.66753

Hourly Observations for May 15, 2022

Temp ( °F °C ) Dew Point ( °F °C ) Humidity (%) Winds ( mph kmh ) Pressure ( in mb ) Visibility ( mi km ) Precip ( " mm )
12:53 am 00:53 Clear 67 19.4 65 18.3 93 93 Calm 29.93 1014 10 16 0.00 0.00
1:53 am 01:53 Cloudy 68 20 66 18.9 93 93 Calm 29.94 1014 9 14 0.00 0.00
2:53 am 02:53 Mostly Cloudy 68 20 66 18.9 93 93 Calm 29.92 1013 10 16 0.00 0.00
3:53 am 03:53 Partly Cloudy 70 21.1 65 18.3 84 84 E 3 6 29.93 1014 10 16 0.00 0.00
4:53 am 04:53 Clear 67 19.4 64 17.8 91 91 SSW 5 7 29.91 1013 10 16 0.00 0.00
5:53 am 05:53 Sunny 66 18.9 64 17.8 93 93 N 5 7 29.93 1014 8 13 0.00 0.00
6:53 am 06:53 Sunny 70 21.1 66 18.9 87 87 Calm 29.95 1014 10 16 0.00 0.00
7:53 am 07:53 Sunny 74 23.3 66 18.9 76 76 WNW 5 7 29.96 1015 10 16 0.00 0.00
8:53 am 08:53 Sunny 78 25.6 67 19.4 69 69 SW 6 9 29.95 1014 10 16 0.00 0.00
9:53 am 09:53 Sunny 80 26.7 68 20 67 67 NNW 7 11 29.95 1014 10 16 0.00 0.00
10:53 am 10:53 Sunny 82 27.8 67 19.4 60 60 Calm 29.94 1014 10 16 0.00 0.00
11:53 am 11:53 Sunny 85 29.4 67 19.4 55 55 Calm 29.94 1014 10 16 0.00 0.00
12:53 pm 12:53 Sunny 86 30 65 18.3 49 49 Calm 29.90 1013 10 16 0.00 0.00
1:53 pm 13:53 Mostly Sunny 89 31.7 65 18.3 45 45 Calm 29.88 1012 10 16 0.00 0.00
2:18 pm 14:18 Cloudy with Nearby Thunderstorms 88 31.1 64 17.8 45 45 WNW 8 13 29.86 1011 10 16 0.00 0.00
2:33 pm 14:33 Mostly Cloudy 88 31.1 65 18.3 46 46 NNE 6 9 29.86 1011 10 16 0.00 0.00
2:53 pm 14:53 Mostly Sunny 86 30 65 18.3 49 49 ENE 9 15 29.86 1011 10 16 0.00 0.00
3:53 pm 15:53 Mostly Sunny 90 32.2 63 17.2 41 41 VRB 3 6 29.84 1011 10 16 0.00 0.00
4:53 pm 16:53 Sunny 89 31.7 60 15.6 38 38 WNW 6 9 29.84 1011 10 16 0.00 0.00
5:53 pm 17:53 Partly Cloudy 82 27.8 63 17.2 53 53 VRB 5 7 29.83 1010 10 16 0.00 0.00
6:53 pm 18:53 Sunny 80 26.7 64 17.8 58 58 S 6 9 29.82 1010 10 16 0.00 0.00
7:53 pm 19:53 Clear 76 24.4 65 18.3 69 69 SSW 5 7 29.86 1011 10 16 0.00 0.00
8:53 pm 20:53 Clear 76 24.4 66 18.9 72 72 S 3 6 29.85 1011 10 16 0.00 0.00
9:27 pm 21:27 Mostly Cloudy with Nearby Thunderstorms 75 23.9 66 18.9 74 74 WNW 7 11 29.90 1013 10 16 0.00 0.00
9:53 pm 21:53 Cloudy with Nearby Thunderstorms 70 21.1 66 18.9 87 87 SW 14 22 29.86 1011 5 8 0.09 2.29
10:01 pm 22:01 Cloudy with Nearby Thunderstorms 70 21.1 66 18.9 87 87 SW 12 19 29.87 1011 7 11 0.01 0.25
10:18 pm 22:18 Mostly Cloudy with Light Rain 69 20.6 65 18.3 87 87 NW 9 15 29.90 1012 10 16 0.02 0.51
10:26 pm 22:26 Mostly Cloudy with Nearby Thunderstorms 69 20.6 65 18.3 87 87 W 8 13 29.88 1012 10 16 0.02 0.51
10:41 pm 22:41 Partly Cloudy 69 20.6 64 17.8 84 84 N 6 9 29.87 1011 10 16 0.02 0.51
10:53 pm 22:53 Mostly Clear 69 20.6 64 17.8 84 84 Calm 29.86 1011 10 16 0.02 0.51
11:53 pm 23:53 Clear 68 20 64 17.8 87 87 SSW 3 6 29.82 1010 10 16 0.00 0.00

Powered by AerisWeather